FW9019 Weather Reports


Display with metric or nautical units.
time (UTC)temp
F
wind
direction
speed
MPH
gust
MPH
rain 1hr
in
rain 24hr
in
rain mn
in
humidity
%
barometer
mb
20260506212022 57 131 1.0 3.0 0.00 0.00 0.00 45 1013.3
20260506211104 56 119 0.0 2.0 0.00 0.00 0.00 47 1013.2
20260506210045 56 119 1.0 1.0 0.00 0.00 0.00 47 1013.2
20260506205056 56 123 1.0 3.0 0.00 0.00 0.00 46 1013.1
20260506204035 56 126 1.0 2.0 0.00 0.00 0.00 45 1013.2
20260506203137 57 127 0.0 1.0 0.00 0.00 0.00 45 1013.2
20260506202057 57 127 0.0 1.0 0.00 0.00 0.00 43 1013.3
20260506201037 57 127 1.0 3.0 0.00 0.00 0.00 42 1013.3
20260506200017 57 127 1.0 3.0 0.00 0.00 0.00 43 1013.4
20260506195059 57 127 1.0 2.0 0.00 0.00 0.00 46 1013.5
20260506194040 56 127 0.0 1.0 0.00 0.00 0.00 46 1013.4
20260506193019 56 127 1.0 1.0 0.00 0.00 0.00 45 1013.4
20260506192101 56 132 2.0 5.0 0.00 0.00 0.00 46 1013.4
20260506191041 57 138 1.0 2.0 0.00 0.00 0.00 44 1013.4
20260506190042 56 145 0.0 2.0 0.00 0.00 0.00 47 1013.3
20260506185123 56 151 0.0 1.0 0.00 0.00 0.00 46 1013.4
20260506184043 56 152 1.0 2.0 0.00 0.00 0.00 45 1013.4
20260506183044 57 155 1.0 2.0 0.00 0.00 0.00 44 1013.4
20260506182105 57 158 0.0 1.0 0.00 0.00 0.00 43 1013.2
20260506181045 57 160 0.0 1.0 0.00 0.00 0.00 42 1013.5
20260506180027 57 161 0.0 2.0 0.00 0.00 0.00 43 1013.5
20260506175107 56 161 0.0 2.0 0.00 0.00 0.00 45 1013.6
20260506174107 56 162 0.0 2.0 0.00 0.00 0.00 46 1013.4
20260506173047 56 162 0.0 2.0 0.00 0.00 0.00 46 1013.5
20260506172110 56 163 0.0 1.0 0.00 0.00 0.00 46 1013.5
20260506171050 56 0.0 0.0 0.00 0.00 0.00 46 1013.4
20260506170100 56 0.0 0.0 0.00 0.00 0.00 44 1013.6
20260506165041 56 163 0.0 1.0 0.00 0.00 0.00 45 1013.6
20260506164020 56 163 0.0 2.0 0.00 0.00 0.00 45 1013.5
20260506163031 57 163 0.0 1.0 0.00 0.00 0.00 44 1013.4
20260506162113 58 163 0.0 1.0 0.00 0.00 0.00 44 1013.2
20260506161100 57 163 0.0 2.0 0.00 0.00 0.00 43 1013.0
20260506160157 57 164 1.0 2.0 0.00 0.00 0.00 46 1013.2
20260506155044 56 165 0.0 1.0 0.00 0.00 0.00 46 1013.4
20260506154026 57 0.0 0.0 0.00 0.00 0.00 46 1013.1
20260506153106 56 165 0.0 1.0 0.00 0.00 0.00 48 1013.2
20260506152047 56 0.0 0.0 0.00 0.00 0.00 46 1013.0
20260506151026 58 165 0.0 1.0 0.00 0.00 0.00 46 1013.2
20260506150109 60 165 0.0 2.0 0.00 0.00 0.00 45 1013.1
20260506145017 58 165 1.0 2.0 0.00 0.00 0.00 45 1013.2
20260506144059 57 166 0.0 1.0 0.00 0.00 0.00 50 1012.8
20260506143039 57 166 1.0 2.0 0.00 0.00 0.00 50 1012.8
20260506142039 58 0.0 0.0 0.00 0.00 0.00 52 1012.8
20260506141030 59 206 1.0 1.0 0.00 0.00 0.00 51 1012.6
20260506140113 58 217 1.0 2.0 0.00 0.00 0.00 54 1012.6
20260506135022 57 221 0.0 1.0 0.00 0.00 0.00 55 1012.6
20260506134123 56 223 0.0 1.0 0.00 0.00 0.00 56 1012.2
20260506133043 56 223 0.0 1.0 0.00 0.00 0.00 63 1012.4
20260506132054 53 224 0.0 2.0 0.00 0.00 0.00 73 1012.3
20260506131034 51 0.0 0.0 0.00 0.00 0.00 85 1012.2
20260506130137 50 225 0.0 1.0 0.00 0.00 0.00 89 1012.7
20260506125116 50 0.0 0.0 0.00 0.00 0.00 90 1012.3
20260506124036 50 0.0 0.0 0.00 0.00 0.00 91 1012.2
20260506123048 48 0.0 0.0 0.00 0.00 0.00 91 1011.8
20260506122027 48 0.0 0.0 0.00 0.00 0.00 91 1012.2
20260506121109 46 0.0 0.0 0.00 0.00 0.00 92 1011.6
20260506120110 44 0.0 0.0 0.00 0.00 0.00 91 1011.6
20260506115029 44 0.0 0.0 0.00 0.00 0.00 91 1011.3
20260506114111 43 0.0 0.0 0.00 0.00 0.00 91 1011.1
20260506113052 43 0.0 0.0 0.00 0.00 0.00 91 1011.4
20260506112031 43 0.0 0.0 0.00 0.00 0.00 91 1010.9
20260506111114 43 0.0 0.0 0.00 0.00 0.00 91 1010.5
20260506110053 42 0.0 0.0 0.00 0.00 0.00 91 1010.6
20260506105053 42 0.0 0.0 0.00 0.00 0.00 91 1010.2
20260506104122 43 0.0 0.0 0.00 0.00 0.00 91 1010.0
20260506103055 43 0.0 0.0 0.00 0.00 0.00 91 1009.6
20260506102037 43 0.0 0.0 0.00 0.00 0.00 91 1009.8
20260506101117 43 0.0 0.0 0.00 0.00 0.00 91 1009.8
20260506100129 43 0.0 0.0 0.00 0.00 0.00 91 1010.1
20260506095109 43 0.0 0.0 0.00 0.00 0.00 91 1010.4
20260506094049 43 0.0 0.0 0.00 0.00 0.00 91 1009.8
20260506093029 43 0.0 0.0 0.00 0.00 0.00 91 1009.4
20260506092110 43 0.0 0.0 0.00 0.00 0.00 91 1009.8
20260506091050 43 0.0 0.0 0.00 0.00 0.00 91 1009.4
20260506090030 43 0.0 0.0 0.00 0.00 0.00 91 1009.5
20260506085050 43 0.0 0.0 0.00 0.00 0.00 91 1009.2
20260506084042 43 0.0 0.0 0.00 0.00 0.00 91 1009.2
20260506083103 43 0.0 0.0 0.00 0.00 0.00 91 1009.0
20260506082043 43 0.0 0.0 0.00 0.00 0.00 91 1009.7
20260506081023 43 0.0 0.0 0.00 0.00 0.00 91 1009.8
20260506080105 43 0.0 0.0 0.00 0.00 0.00 91 1009.6
20260506073037 43 260 0.0 1.0 0.00 0.00 0.00 91 1009.0
20260506072119 43 0.0 0.0 0.00 0.00 0.00 91 1009.0
20260506071100 43 0.0 0.0 0.00 0.00 0.00 91 1009.2
20260506062051 44 252 0.0 1.0 0.00 0.00 0.00 91 1008.9
20260506061102 44 0.0 0.0 0.00 0.00 0.00 91 1008.9
20260506051106 44 0.0 0.0 0.00 0.00 0.00 90 1010.0
20260506045117 44 267 0.0 1.0 0.00 0.00 0.00 90 1010.1
20260506044109 44 264 0.0 2.0 0.00 0.00 0.00 90 1009.6
20260506043017 44 266 0.0 1.0 0.00 0.00 0.00 90 1009.2
20260506042059 44 258 0.0 1.0 0.00 0.00 0.00 90 1009.2
20260506041112 44 261 0.0 1.0 0.00 0.00 0.00 90 1008.9
20260506040110 44 270 1.0 2.0 0.00 0.00 0.00 90 1008.9
20260506035030 44 256 1.0 2.0 0.00 0.00 0.00 90 1008.9
20260506034132 44 246 1.0 3.0 0.00 0.00 0.00 90 1008.8
20260506033052 44 256 1.0 2.0 0.00 0.00 0.00 90 1009.5
20260506032032 44 260 1.0 5.0 0.00 0.00 0.00 90 1009.7
20260506031114 45 270 1.0 2.0 0.00 0.00 0.00 90 1009.4
20260506030023 45 257 1.0 1.0 0.00 0.00 0.00 90 1008.7
20260506025105 45 226 0.0 1.0 0.00 0.00 0.00 90 1008.1
20260506024045 45 235 0.0 1.0 0.00 0.00 0.00 90 1008.1
20260506023025 45 229 0.0 1.0 0.00 0.00 0.00 90 1008.3
20260506022107 45 229 0.0 1.0 0.00 0.00 0.00 90 1008.7
20260506021118 45 0.0 0.0 0.00 0.00 0.00 90 1009.3
20260506020059 44 257 1.0 3.0 0.00 0.00 0.00 90 1008.2
20260506015039 44 255 1.0 3.0 0.00 0.00 0.00 90 1007.7
20260506014019 44 245 0.0 1.0 0.00 0.00 0.00 90 1007.5
20260506013030 44 244 0.0 2.0 0.00 0.00 0.00 90 1008.0
20260506012040 44 275 0.0 2.0 0.00 0.00 0.00 90 1007.5
20260506011020 44 273 0.0 2.0 0.00 0.00 0.00 90 1007.5
20260506005042 44 280 0.0 1.0 0.00 0.00 0.00 90 1007.9
20260506004022 44 277 0.0 1.0 0.00 0.00 0.00 90 1008.0
20260506003104 44 275 1.0 2.0 0.00 0.00 0.00 90 1008.0
20260506002104 44 211 0.0 1.0 0.00 0.00 0.00 89 1007.8
20260506001024 44 0.0 0.0 0.00 0.00 0.00 89 1007.6
20260506000055 44 242 1.0 6.0 0.00 0.00 0.00 89 1007.7
20260505235117 44 266 0.0 1.0 0.00 0.00 0.00 89 1007.9
20260505234057 44 264 0.0 3.0 0.00 0.00 0.00 89 1008.2
20260505233037 45 262 1.0 3.0 0.00 0.00 0.00 89 1008.1
20260505232017 45 0.0 0.0 0.00 0.00 0.00 89 1008.1
20260505231059 45 230 0.0 1.0 0.00 0.00 0.00 89 1008.2
20260505230039 45 0.0 0.0 0.00 0.00 0.00 89 1008.4
20260505225019 45 265 0.0 2.0 0.00 0.00 0.00 89 1008.3
20260505224121 45 116 1.0 3.0 0.00 0.00 0.00 89 1008.2
20260505223112 45 205 1.0 3.0 0.00 0.00 0.00 89 1008.3
20260505222052 45 232 1.0 3.0 0.00 0.00 0.00 89 1008.5
20260505221032 46 239 0.0 2.0 0.00 0.00 0.00 89 1008.7
20260505220114 46 211 0.0 3.0 0.00 0.00 0.00 89 1008.4
20260505215054 46 238 0.0 2.0 0.00 0.00 0.00 89 1008.4
20260505214054 47 238 1.0 6.0 0.00 0.00 0.00 89 1008.4
20260505213116 47 199 0.0 5.0 0.00 0.00 0.00 89 1008.1